Altus AFB, OK

10:00 AM CDT on October 20, 2019 (GMT -0500)
Altus Air Force Base

Weather History for KLTS - August, 2019

Change the Weather History Date:

Sunday, August 4, 2019

  Actual Average Record
Temperature  
Mean Temperature 83 °F -  
Max Temperature 96 °F 95 °F 109 °F (2011)
Min Temperature 71 °F 70 °F 63 °F (2014)
Cooling Degree Days 18    
Growing Degree Days 33 (Base 50)    
Moisture  
Dew Point 67 °F    
Average Humidity 64    
Maximum Humidity 94    
Minimum Humidity 29    
Precipitation  
Precipitation 0.00 in - - ()
Sea Level Pressure  
Sea Level Pressure 29.97 in    
Wind  
Wind Speed 6 mph (ENE)    
Max Wind Speed 14 mph    
Max Gust Speed 22 mph    
Visibility 10 miles    
Events      
Averages and records for this station are not official NWS values.
T = Trace of Precipitation, MM = Missing Value Source: NWS Daily Summary

Daily Weather History Graph

Daily Weather History Graph

Search for Another Location

Airport or City:

Astronomy

Aug. 04, 2019 Rise Set
Actual Time 6:49 AM CDT 8:36 PM CDT
Civil Twilight 6:21 AM CDT 9:03 PM CDT
Nautical Twilight 5:48 AM CDT 9:37 PM CDT
Astronomical Twilight 5:13 AM CDT 10:12 PM CDT
Moon 10:48 AM CDT (8/4) 11:27 PM CDT (8/4)
Length of Visible Light 14h 42m
Length of Day
13h 47m
Waxing Crescent, 18% of the Moon is Illuminated
Aug 4
Waxing Crescent
Aug 7
First Quarter
Aug 15
Full
Aug 23
Last Quarter
Aug 30
New

Hourly Weather History & Observations

Time (CDT) Temp. Heat Index Dew Point Humidity Pressure Visibility Wind Dir Wind Speed Gust Speed Precip Events Conditions
12:56 AM 75.6 °F - 68.9 °F 80% 29.99 in 10.0 mi East 6.9 mph - N/A   Clear
1:56 AM 74.3 °F - 69.8 °F 86% 29.97 in 10.0 mi ENE 5.8 mph - N/A   Clear
2:26 AM 75.2 °F - 69.8 °F 83% 29.97 in 10.0 mi ENE 6.9 mph - N/A   Mostly Cloudy
2:56 AM 75.0 °F - 70.2 °F 85% 29.97 in 10.0 mi East 5.8 mph - N/A   Scattered Clouds
3:56 AM 74.7 °F - 69.8 °F 85% 29.97 in 10.0 mi ENE 5.8 mph - N/A   Partly Cloudy
4:56 AM 73.4 °F - 70.0 °F 89% 29.96 in 10.0 mi ENE 6.9 mph - N/A   Partly Cloudy
5:56 AM 71.4 °F - 69.3 °F 93% 29.97 in 10.0 mi NE 4.6 mph - N/A   Partly Cloudy
6:56 AM 71.2 °F - 69.4 °F 94% 29.99 in 10.0 mi NE 4.6 mph - N/A   Clear
7:56 AM 73.6 °F - 70.7 °F 91% 30.01 in 10.0 mi NE 5.8 mph - N/A   Scattered Clouds
8:41 AM 77.0 °F - 69.8 °F 78% 30.01 in 10.0 mi ENE 3.5 mph - N/A   Mostly Cloudy
8:56 AM 77.9 °F - 69.6 °F 76% 30.01 in 10.0 mi Calm Calm - N/A   Mostly Cloudy
9:11 AM 78.8 °F - 69.8 °F 74% 30.02 in 10.0 mi SSE 3.5 mph - N/A   Mostly Cloudy
9:41 AM 78.8 °F - 69.8 °F 74% 30.03 in 10.0 mi ENE 3.5 mph - N/A   Overcast
9:56 AM 81.3 °F 85.2 °F 70.5 °F 70% 30.02 in 10.0 mi NE 5.8 mph - N/A   Mostly Cloudy
10:11 AM 80.6 °F 84.6 °F 71.6 °F 74% 30.03 in 10.0 mi NE 5.8 mph - N/A   Partly Cloudy
10:56 AM 83.5 °F 87.7 °F 70.3 °F 64% 30.02 in 10.0 mi Calm Calm - N/A   Partly Cloudy
11:56 AM 88.5 °F 92.3 °F 68.5 °F 51% 30.01 in 10.0 mi WNW 5.8 mph - N/A   Mostly Cloudy
12:11 PM 87.8 °F 92.6 °F 69.8 °F 55% 30.01 in 10.0 mi North 5.8 mph - N/A   Scattered Clouds
12:56 PM 87.1 °F 90.2 °F 67.3 °F 52% 29.99 in 10.0 mi NNE 4.6 mph - N/A   Partly Cloudy
1:56 PM 89.2 °F 90.2 °F 63.7 °F 42% 29.96 in 10.0 mi North 6.9 mph - N/A   Partly Cloudy
2:56 PM 91.9 °F 92.5 °F 61.9 °F 37% 29.96 in 10.0 mi NNE 4.6 mph - N/A   Partly Cloudy
3:50 PM 95.0 °F 95.2 °F 60.8 °F 32% 29.93 in 10.0 mi East 13.8 mph 21.9 mph N/A   Partly Cloudy
3:56 PM 95.9 °F 96.1 °F 61.2 °F 31% 29.93 in 10.0 mi NE 10.4 mph 21.9 mph N/A   Scattered Clouds
4:56 PM 95.5 °F 95.6 °F 60.1 °F 31% 29.92 in 10.0 mi NNE 8.1 mph - N/A   Partly Cloudy
5:56 PM 95.7 °F 95.1 °F 59.2 °F 29% 29.91 in 10.0 mi ENE 4.6 mph - N/A   Clear
6:56 PM 93.7 °F 93.7 °F 61.0 °F 33% 29.89 in 10.0 mi ESE 4.6 mph - N/A   Clear
7:56 PM 90.1 °F 92.3 °F 65.3 °F 44% 29.89 in 10.0 mi SSE 13.8 mph - N/A   Partly Cloudy
8:56 PM 84.6 °F 87.6 °F 67.6 °F 57% 29.91 in 10.0 mi SSE 11.5 mph - N/A   Partly Cloudy
9:56 PM 80.8 °F 83.3 °F 67.5 °F 64% 29.94 in 10.0 mi SSE 5.8 mph - N/A   Partly Cloudy
10:56 PM 77.9 °F - 66.9 °F 69% 29.96 in 10.0 mi SE 5.8 mph - N/A   Clear
11:56 PM 76.5 °F - 66.4 °F 71% 29.97 in 10.0 mi SE 5.8 mph - N/A   Clear